Location: Arroyo de Valdeoliva
(40.1604°N, 4.9878°W)
Time: 11:54:18
(UTC+00:00)

ARIANE 6 FM1 Upper Stage - Pass Details

Date: 23 February 2026
Orbit: 523 x 607 km, 62.0° (Epoch: 8 March)

Event Time Altitude Azimuth Distance (km) Brightness Sun altitude
Rises 19:16:37 0° 302° (WNW) 2,656 7.1 -14.4°
Reaches altitude 10° 19:19:53 10° 273° (W) 1,769 6.6 -15.1°
Maximum altitude 19:21:38 13° 247° (WSW) 1,610 6.0 -15.4°
Drops below altitude 10° 19:23:23 10° 221° (SW) 1,776 5.8 -15.7°
Sets 19:26:41 0° 192° (SSW) 2,676 6.3 -16.4°
